Location: �terpigny
(49.8910°N, 2.9249°E)
Time: 05:06:23
(UTC+00:00)

EO-88 - Pass Details

Date: 30 June 2022
Orbit: 454 x 462 km, 97.3° (Epoch: 07 August)

Event Time Altitude Azimuth Distance (km) Brightness Sun altitude
Exits shadow 20:52:54 - 156° (SSE) 1,775 ? -6.9°
Reaches altitude 10° 20:53:15 10° 155° (SSE) 1,625 ? -6.9°
Maximum altitude 20:56:42 63° 74° (ENE) 528 ? -7.3°
Drops below altitude 10° 21:00:11 10° 353° (N) 1,637 ? -7.6°
Sets 21:02:15 0° 350° (N) 2,517 ? -7.9°
